Location: Quedlinburg
(51.7921°N, 11.1414°E)
Time: 00:48:19
(UTC+02:00)

ISS - Visible Passes

Search period start: 22 October 2019 00:00
Search period end: 31 October 2019 23:00
Orbit: 411 x 421 km, 51.6° (Epoch: 21 October)

Date Brightness Start Highest point End Pass type
(mag) Time Alt. Az. Time Alt. Az. Time Alt. Az.
24 Oct -0.5 06:51:30 10° SSE 06:52:31 11° SE 06:53:32 10° ESE visible
26 Oct -1.4 06:48:58 10° SSW 06:51:38 22° SE 06:54:18 10° E visible
27 Oct -1.0 05:01:08 10° S 05:03:12 15° SE 05:05:17 10° ESE visible
28 Oct -0.7 04:14:37 10° SE 04:14:49 10° SE 04:15:22 10° SE visible
28 Oct -2.6 05:47:40 10° SW 05:50:51 40° SSE 05:54:02 10° E visible
29 Oct -2.1 05:01:14 24° S 05:02:20 29° SSE 05:05:18 10° E visible
30 Oct -1.2 04:14:50 18° ESE 04:14:50 18° ESE 04:16:26 10° E visible
30 Oct -3.5 05:47:44 17° WSW 05:50:10 65° SSE 05:53:31 10° E visible
31 Oct -3.3 05:01:13 48° S 05:01:32 51° SSE 05:04:49 10° E visible
